Weather History for Twenthe, Netherlands

Change the Weather History Date:

Thursday, May 1, 2014

  Actual Average Record
Temperature  
Mean Temperature 54 °F -  
Max Temperature 59 °F 62 °F 80 °F (2005)
Min Temperature 49 °F 43 °F 35 °F (2006)
Degree Days  
Heating Degree Days 10    
Growing Degree Days 4 (Base 50)    
Moisture  
Dew Point 52 °F    
Average Humidity 91    
Maximum Humidity 100    
Minimum Humidity 73    
Precipitation  
Precipitation 0.04 in - - ()
Sea Level Pressure  
Sea Level Pressure 29.87 in    
Wind  
Wind Speed 4 mph ()    
Max Wind Speed 9 mph    
Max Gust Speed -    
Visibility 1.7 miles    
Events Fog , Rain    
Averages and records for this station are not official NWS values.
T = Trace of Precipitation, MM = Missing Value Source: Averaged Metar Reports

Daily Weather History Graph

Daily Weather History Graph

Search for Another Location

Airport:

Trip Planner

Search our weather history database for the weather conditions in past years. The results will help you decide how hot, cold, wet, or windy it might be!

Date:

Astronomy

May. 01, 2014 Rise Set
Actual Time 6:02 AM CEST 8:57 PM CEST
Civil Twilight 5:23 AM CEST 9:37 PM CEST
Nautical Twilight 4:32 AM CEST 10:28 PM CEST
Astronomical Twilight 3:28 AM CEST 11:34 PM CEST
Moon 7:30 AM CEST (5/1) 11:24 PM CEST (5/1)
Length of Visible Light 16h 14m
Length of Day
14h 55m
Waxing Crescent, 5% of the Moon is Illuminated
May 1
Waxing Crescent
May 7
First Quarter
May 14
Full
May 21
Last Quarter
May 28
New

Hourly Weather History & Observations

Time (CEST) Temp. Dew Point Humidity Pressure Visibility Wind Dir Wind Speed Gust Speed Precip Events Conditions
12:00 AM 55 °F 54 °F 96% 29.88 in 1 mi SSW 4.5 mph - - Fog Fog
1:00 AM 54 °F 54 °F 100% 29.87 in 1 mi West 4.5 mph - - Rain Rain
2:00 AM 54 °F 53 °F 95% 29.87 in 1 mi WSW 4.5 mph - -   Mist
3:00 AM 53 °F 53 °F 98% 29.86 in 1 mi WSW 4.5 mph - - Fog Fog
4:00 AM 53 °F 52 °F 96% 29.86 in 1 mi West 4.5 mph - -   Mist
5:00 AM 52 °F 51 °F 95% 29.85 in 1 mi West 6.7 mph - -   Mist
6:00 AM 52 °F 51 °F 95% 29.84 in 1 mi West 4.5 mph - - Rain Light Drizzle
7:00 AM 52 °F 52 °F 99% 29.85 in 0 mi West 4.5 mph - - Fog Fog
8:00 AM 52 °F 52 °F 100% 29.86 in 0 mi WSW 4.5 mph - - Fog Fog
9:00 AM 52 °F 52 °F 100% 29.87 in 0 mi West 4.5 mph - - Rain Light Drizzle
10:00 AM 52 °F 52 °F 99% 29.87 in 0 mi West 4.5 mph - - Fog Fog
11:00 AM 53 °F 52 °F 96% 29.88 in 1 mi SW 4.5 mph - - Rain Heavy Drizzle
12:00 PM 52 °F 52 °F 98% 29.89 in 0 mi WSW 6.7 mph - - Rain Drizzle
1:00 PM 53 °F 52 °F 95% 29.88 in 1 mi SW 4.5 mph - - Rain Light Drizzle
2:00 PM 55 °F 52 °F 88% 29.88 in 1 mi NNW 2.2 mph - - Rain Drizzle
3:00 PM 58 °F 52 °F 73% 29.87 in 2 mi WNW 4.5 mph - -   Mist
4:00 PM 58 °F 52 °F 74% 29.86 in 3 mi NNW 4.5 mph - -   Light Haze
5:00 PM 57 °F 52 °F 77% 29.86 in 3 mi North 6.7 mph - -   Mist
6:00 PM 59 °F 53 °F 75% 29.85 in 4 mi North 6.7 mph - -   Mist
7:00 PM 57 °F 52 °F 78% 29.84 in 4 mi NNE 6.7 mph - -   Mist
8:00 PM 56 °F 51 °F 77% 29.85 in 6 mi NE 8.9 mph - -   Partly Cloudy
9:00 PM 54 °F 50 °F 83% 29.87 in 5 mi NE 8.9 mph - -   Mist
10:00 PM 50 °F 49 °F 94% 29.88 in 3 mi NE 6.7 mph - -   Mist
11:00 PM 49 °F 48 °F 96% 29.88 in 1 mi NNE 2.2 mph - -   Mist